Ottumwa, IA

8:23 PM CST on January 17, 2017 (GMT -0600)
Ottumwa Industrial

Weather History for KOTM - February, 2013

Change the Weather History Date:

Friday, February 22, 2013

  Actual Average Record
Temperature  
Mean Temperature 26 °F 30 °F  
Max Temperature 29 °F 39 °F 66 °F (1930)
Min Temperature 22 °F 20 °F -4 °F (1929)
Degree Days  
Heating Degree Days 39 36  
Month to date heating degree days 817 857  
Since 1 July heating degree days 4309 4679  
Cooling Degree Days 0 0  
Month to date cooling degree days 0 0  
Year to date cooling degree days 0 0  
Moisture  
Dew Point 20 °F    
Average Humidity 78    
Maximum Humidity 92    
Minimum Humidity 63    
Precipitation  
Precipitation 0.02 in 0.06 in 1.60 in (1922)
Month to date precipitation 1.01 0.90  
Year to date precipitation 2.53 1.80  
Sea Level Pressure  
Sea Level Pressure 29.85 in    
Wind  
Wind Speed 10 mph (WNW)    
Max Wind Speed 20 mph    
Max Gust Speed 22 mph    
Visibility 6 miles    
Events Snow    
T = Trace of Precipitation, MM = Missing Value Source: NWS Daily Summary

Daily Weather History Graph

Daily Weather History Graph

Search for Another Location

Airport or City:

Trip Planner

Search our weather history database for the weather conditions in past years. The results will help you decide how hot, cold, wet, or windy it might be!

Date:

Astronomy

Feb. 22, 2013 Rise Set
Actual Time 6:54 AM CST 5:52 PM CST
Civil Twilight 6:26 AM CST 6:20 PM CST
Nautical Twilight 5:54 AM CST 6:52 PM CST
Astronomical Twilight 5:22 AM CST 7:24 PM CST
Moon 3:03 PM CST (2/22) 4:40 AM CST (2/22)
Length of Visible Light 11h 54m
Length of Day
10h 58m
Waxing Gibbous, 90% of the Moon is Illuminated
Feb 22
Waxing Gibbous
Feb 25
Full
Mar 4
Last Quarter
Mar 11
New
Mar 19
First Quarter

Hourly Weather History & Observations

Time (CST) Temp. Windchill Dew Point Humidity Pressure Visibility Wind Dir Wind Speed Gust Speed Precip Events Conditions
12:00 AM 24.8 °F 12.4 °F 21.2 °F 86% 29.80 in 1.5 mi East 15.0 mph - 0.00 in Snow Light Snow
12:19 AM 24.8 °F 12.4 °F 21.2 °F 86% 29.80 in 3.0 mi East 15.0 mph - 0.01 in Snow Light Snow
12:41 AM 24.8 °F 13.4 °F 21.2 °F 86% 29.79 in 4.0 mi East 12.7 mph - 0.01 in Snow Light Snow
12:53 AM 24.1 °F 12.5 °F 21.0 °F 88% 29.82 in 4.0 mi East 12.7 mph - 0.01 in Snow Light Snow
1:05 AM 24.8 °F 14.6 °F 21.2 °F 86% 29.79 in 5.0 mi East 10.4 mph - 0.00 in Snow Light Snow
1:53 AM 24.1 °F 13.7 °F 21.9 °F 91% 29.81 in 6.0 mi East 10.4 mph - 0.00 in   Overcast
2:53 AM 24.1 °F 15.2 °F 21.9 °F 91% 29.80 in 3.0 mi East 8.1 mph - 0.00 in   Overcast
3:05 AM 24.8 °F 16.9 °F 23.0 °F 93% 29.76 in 2.5 mi East 6.9 mph - 0.00 in Snow Light Snow
3:29 AM 24.8 °F 16.9 °F 23.0 °F 93% 29.75 in 1.8 mi East 6.9 mph - 0.00 in Snow Light Snow
3:53 AM 25.0 °F 17.1 °F 23.0 °F 92% 29.78 in 1.5 mi East 6.9 mph - 0.00 in Snow Light Snow
4:15 AM 24.8 °F 16.9 °F 23.0 °F 93% 29.74 in 1.5 mi East 6.9 mph - 0.01 in Snow Light Snow
4:36 AM 24.8 °F 19.1 °F 23.0 °F 93% 29.73 in 2.0 mi ENE 4.6 mph - 0.01 in Snow Light Snow
4:53 AM 25.0 °F 19.3 °F 23.0 °F 92% 29.77 in 2.5 mi ENE 4.6 mph - 0.01 in Snow Light Snow
5:03 AM 24.8 °F 19.1 °F 23.0 °F 93% 29.74 in 3.0 mi East 4.6 mph - 0.00 in Snow Light Snow
5:21 AM 24.8 °F 20.5 °F 21.2 °F 86% 29.74 in 4.0 mi ENE 3.5 mph - 0.00 in Snow Light Snow
5:53 AM 24.1 °F - 21.9 °F 91% 29.78 in 4.0 mi Calm Calm - 0.00 in   Overcast
6:04 AM 24.8 °F - 21.2 °F 86% 29.75 in 5.0 mi Calm Calm - N/A   Overcast
6:40 AM 24.8 °F 20.5 °F 21.2 °F 86% 29.76 in 5.0 mi West 3.5 mph - N/A   Overcast
6:53 AM 24.1 °F 19.7 °F 21.9 °F 91% 29.79 in 5.0 mi West 3.5 mph - N/A   Overcast
7:15 AM 24.8 °F - 21.2 °F 86% 29.76 in 3.0 mi Calm Calm - N/A   Overcast
7:53 AM 24.1 °F 18.2 °F 21.9 °F 91% 29.81 in 3.0 mi West 4.6 mph - N/A   Overcast
8:14 AM 24.8 °F 17.9 °F 21.2 °F 86% 29.78 in 2.5 mi WSW 5.8 mph - 0.00 in Snow Light Snow
8:33 AM 24.8 °F 16.1 °F 21.2 °F 86% 29.80 in 4.0 mi WSW 8.1 mph - 0.00 in   Overcast
8:53 AM 24.1 °F 13.7 °F 21.9 °F 91% 29.85 in 4.0 mi WSW 10.4 mph - 0.00 in   Overcast
9:38 AM 24.8 °F 14.6 °F 21.2 °F 86% 29.82 in 6.0 mi WSW 10.4 mph - N/A   Overcast
9:53 AM 26.1 °F 15.0 °F 21.9 °F 84% 29.85 in 7.0 mi WSW 12.7 mph - N/A   Overcast
10:06 AM 26.6 °F 15.2 °F 21.2 °F 80% 29.82 in 8.0 mi West 13.8 mph - N/A   Overcast
10:53 AM 27.0 °F 15.2 °F 21.9 °F 81% 29.88 in 8.0 mi West 15.0 mph - N/A   Overcast
11:16 AM 28.4 °F 16.2 °F 21.2 °F 74% 29.86 in 7.0 mi West 17.3 mph - 0.00 in Snow Light Snow
11:25 AM 28.4 °F 16.6 °F 21.2 °F 74% 29.85 in 6.0 mi West 16.1 mph - 0.00 in Snow Light Snow
11:53 AM 28.0 °F 16.5 °F 21.0 °F 75% 29.89 in 9.0 mi West 15.0 mph - 0.00 in   Overcast
12:53 PM 28.0 °F 17.0 °F 19.9 °F 72% 29.89 in 10.0 mi West 13.8 mph - N/A   Overcast
1:53 PM 28.9 °F 18.2 °F 19.0 °F 67% 29.91 in 10.0 mi WNW 13.8 mph - N/A   Overcast
2:53 PM 28.9 °F 18.2 °F 18.0 °F 64% 29.92 in 10.0 mi West 13.8 mph - N/A   Overcast
3:53 PM 28.0 °F 16.1 °F 19.0 °F 69% 29.94 in 10.0 mi West 16.1 mph - N/A   Overcast
4:01 PM 28.4 °F 18.0 °F 17.6 °F 64% 29.91 in 10.0 mi WNW 12.7 mph - N/A   Overcast
4:29 PM 26.6 °F 14.7 °F 17.6 °F 69% 29.92 in 10.0 mi WNW 15.0 mph - N/A   Overcast
4:53 PM 27.0 °F 16.7 °F 18.0 °F 69% 29.96 in 10.0 mi West 11.5 mph - N/A   Overcast
5:53 PM 26.1 °F 14.0 °F 18.0 °F 71% 29.98 in 10.0 mi WNW 15.0 mph - N/A   Overcast
6:53 PM 25.0 °F 14.8 °F 17.1 °F 72% 30.01 in 10.0 mi WNW 10.4 mph - N/A   Overcast
7:53 PM 24.1 °F 13.7 °F 16.0 °F 71% 30.02 in 10.0 mi WNW 10.4 mph - N/A   Overcast
8:53 PM 24.1 °F 12.5 °F 16.0 °F 71% 30.02 in 10.0 mi West 12.7 mph - N/A   Overcast
9:53 PM 24.1 °F 13.1 °F 16.0 °F 71% 30.02 in 10.0 mi West 11.5 mph - N/A   Overcast
10:53 PM 23.0 °F 13.1 °F 16.0 °F 74% 30.02 in 10.0 mi WSW 9.2 mph - N/A   Overcast
11:53 PM 23.0 °F 13.1 °F 16.0 °F 74% 30.01 in 10.0 mi WSW 9.2 mph - N/A   Overcast